WMT7M LROP-EDDM

Flight info

Callsign WMT7M
Flight time 0h 51m
Altitude 36000
Route POLUN DCT VIKBI DCT ELDET DCT LELTI DCT ANASA DCT ENUPU DCT OBISA DCT OKSIG DCT MONID DCT RUGOG DCT KANIN DCT RASTA DCT REDBU Q112 NAPSA NAPSA4A
Aircraft A320/M-SDE3FGHIRWY/LB1

Departure

Time 2026-05-01 09:18
Airport Bucharest Henri Coandă International Airport (LROP)

Arrival

Time 2026-05-01 10:10
Airport Munich Airport (EDDM)
Time Latitude Longitude Altitude Speed Heading
2026-05-01 09:04 44.57014 26.08080 323 ft 0 kts 354°
2026-05-01 09:09 44.57006 26.08081 322 ft 3 kts 354°
2026-05-01 09:09 44.56989 26.08083 320 ft 3 kts 354°
2026-05-01 09:10 44.56972 26.08086 322 ft 3 kts 354°
2026-05-01 09:10 44.56955 26.08087 319 ft 2 kts 352°
2026-05-01 09:10 44.56938 26.08083 321 ft 2 kts 58°
2026-05-01 09:10 44.56934 26.08075 322 ft 0 kts 88°
2026-05-01 09:13 44.56935 26.08076 322 ft 1 kts 87°
2026-05-01 09:13 44.56935 26.08095 322 ft 3 kts 87°
2026-05-01 09:13 44.56937 26.08139 322 ft 6 kts 85°
2026-05-01 09:14 44.56941 26.08207 322 ft 8 kts 85°
2026-05-01 09:14 44.56947 26.08301 322 ft 11 kts 83°
2026-05-01 09:14 44.56918 26.08399 322 ft 13 kts 140°
2026-05-01 09:14 44.56904 26.08515 322 ft 14 kts 64°
2026-05-01 09:15 44.56995 26.08540 321 ft 15 kts 355°
2026-05-01 09:15 44.57106 26.08524 322 ft 17 kts 354°
2026-05-01 09:15 44.57230 26.08504 322 ft 19 kts 354°
2026-05-01 09:15 44.57368 26.08488 322 ft 21 kts 355°
2026-05-01 09:16 44.57479 26.08469 323 ft 10 kts 353°
2026-05-01 09:16 44.57547 26.08459 323 ft 7 kts 354°
2026-05-01 09:16 44.57553 26.08458 323 ft 0 kts 354°
2026-05-01 09:17 44.57572 26.08455 323 ft 3 kts 354°
2026-05-01 09:17 44.57618 26.08456 323 ft 20 kts 14°
2026-05-01 09:17 44.57738 26.09437 322 ft 103 kts 84°
2026-05-01 09:18 44.57847 26.10656 347 ft 146 kts 81°
2026-05-01 09:18 44.58056 26.13711 1362 ft 161 kts 82°
2026-05-01 09:19 44.58303 26.16932 2465 ft 181 kts 79°
2026-05-01 09:19 44.58452 26.18822 2763 ft 204 kts 80°
2026-05-01 09:19 44.58591 26.20866 3140 ft 225 kts 87°
2026-05-01 09:20 44.56914 26.24684 4678 ft 250 kts 151°
2026-05-01 09:20 44.53517 26.24573 6235 ft 258 kts 213°
2026-05-01 09:21 44.51537 26.20428 7640 ft 265 kts 255°
2026-05-01 09:21 44.50997 26.17940 8451 ft 269 kts 256°
2026-05-01 09:21 44.49935 26.12872 10055 ft 277 kts 257°
2026-05-01 09:22 44.49153 26.07456 11010 ft 302 kts 270°
2026-05-01 09:22 44.48947 26.01126 11589 ft 338 kts 270°
2026-05-01 09:23 44.48832 25.97804 12202 ft 344 kts 270°
2026-05-01 09:23 44.48584 25.91024 13494 ft 353 kts 269°
2026-05-01 09:24 44.48320 25.84073 14679 ft 361 kts 269°
2026-05-01 09:24 44.48185 25.80549 15273 ft 364 kts 269°
2026-05-01 09:24 44.47912 25.73425 16441 ft 369 kts 269°
2026-05-01 09:25 44.47628 25.66199 17611 ft 374 kts 269°
2026-05-01 09:25 44.47020 25.50899 19860 ft 386 kts 269°
2026-05-01 09:26 44.46398 25.35786 22098 ft 392 kts 269°
2026-05-01 09:26 44.45276 25.10057 25083 ft 405 kts 269°
2026-05-01 09:26 44.44569 24.94186 26582 ft 413 kts 269°
2026-05-01 09:27 44.43056 24.61791 28340 ft 402 kts 268°
2026-05-01 09:27 44.42270 24.45918 28403 ft 412 kts 268°
2026-05-01 09:27 44.41459 24.29918 28264 ft 414 kts 268°
2026-05-01 09:28 44.40638 24.13900 28319 ft 410 kts 268°
2026-05-01 09:28 44.39781 23.97924 28457 ft 413 kts 268°
2026-05-01 09:28 44.38909 23.81857 28280 ft 419 kts 267°
2026-05-01 09:29 44.36135 23.33582 28301 ft 421 kts 267°
2026-05-01 09:30 44.33122 22.85084 28354 ft 420 kts 267°
2026-05-01 09:30 44.33281 22.36692 28342 ft 415 kts 280°
2026-05-01 09:31 44.36674 22.04733 28321 ft 417 kts 280°
2026-05-01 09:32 44.41663 21.56465 28350 ft 419 kts 280°
2026-05-01 09:32 44.46457 21.07895 28323 ft 420 kts 280°
2026-05-01 09:33 44.49538 20.75429 28348 ft 421 kts 280°
2026-05-01 09:34 44.54015 20.26358 28352 ft 425 kts 280°
2026-05-01 09:34 44.58325 19.76873 28349 ft 428 kts 280°
2026-05-01 09:35 44.62415 19.26771 28368 ft 433 kts 279°
2026-05-01 09:36 44.64857 18.92960 28353 ft 438 kts 279°
2026-05-01 09:36 44.67215 18.58808 28382 ft 439 kts 279°
2026-05-01 09:37 44.70111 18.24787 28359 ft 439 kts 284°
2026-05-01 09:37 44.75931 17.73535 28394 ft 443 kts 283°
2026-05-01 09:38 44.81470 17.21790 28379 ft 449 kts 283°
2026-05-01 09:39 44.89501 16.69700 28430 ft 460 kts 291°
2026-05-01 09:39 44.95917 16.35122 28382 ft 457 kts 291°
2026-05-01 09:40 45.00560 16.18736 28340 ft 448 kts 302°
2026-05-01 09:40 45.10833 15.86019 28379 ft 458 kts 303°
2026-05-01 09:41 45.21124 15.52956 28361 ft 458 kts 302°
2026-05-01 09:41 45.33701 15.23052 28389 ft 427 kts 326°
2026-05-01 09:41 45.42128 15.11117 28387 ft 428 kts 325°
2026-05-01 09:42 45.59021 14.87085 28390 ft 429 kts 325°
2026-05-01 09:43 45.92400 14.39014 28402 ft 423 kts 324°
2026-05-01 09:43 46.08934 14.14883 28398 ft 424 kts 323°
2026-05-01 09:44 46.33633 13.78411 28382 ft 421 kts 323°
2026-05-01 09:45 46.52194 13.61032 28399 ft 388 kts 358°
2026-05-01 09:45 46.83905 13.53639 28319 ft 385 kts 356°
2026-05-01 09:46 47.05193 13.48637 28346 ft 386 kts 356°
2026-05-01 09:46 47.26451 13.43635 28341 ft 385 kts 356°
2026-05-01 09:47 47.47744 13.38392 28386 ft 397 kts 347°
2026-05-01 09:47 47.53885 13.32854 28427 ft 414 kts 325°
2026-05-01 09:47 47.56083 13.30115 28412 ft 413 kts 326°
2026-05-01 09:48 47.58286 13.27440 28174 ft 406 kts 327°
2026-05-01 09:48 47.60458 13.24833 27905 ft 399 kts 327°
2026-05-01 09:48 47.62610 13.22256 27492 ft 397 kts 327°
2026-05-01 09:48 47.64750 13.19686 26976 ft 394 kts 327°
2026-05-01 09:49 47.66872 13.17122 26476 ft 392 kts 327°
2026-05-01 09:49 47.68978 13.14560 25955 ft 391 kts 327°
2026-05-01 09:49 47.71070 13.12002 25440 ft 389 kts 326°
2026-05-01 09:49 47.73148 13.09456 24958 ft 387 kts 326°
2026-05-01 09:50 47.75218 13.06917 24485 ft 385 kts 326°
2026-05-01 09:50 47.77278 13.04386 24020 ft 384 kts 326°
2026-05-01 09:50 47.79335 13.01861 23481 ft 382 kts 326°
2026-05-01 09:50 47.81380 12.99350 22943 ft 381 kts 326°
2026-05-01 09:51 47.83416 12.96849 22415 ft 379 kts 326°
2026-05-01 09:51 47.85447 12.94352 21890 ft 377 kts 326°
2026-05-01 09:51 47.87460 12.91875 21363 ft 375 kts 326°
2026-05-01 09:51 47.89470 12.89395 20864 ft 373 kts 325°
2026-05-01 09:52 47.91464 12.86928 20361 ft 371 kts 325°
2026-05-01 09:52 47.93445 12.84474 19878 ft 369 kts 325°
2026-05-01 09:52 47.95323 12.81858 19393 ft 372 kts 316°
2026-05-01 09:52 47.96833 12.78719 18891 ft 375 kts 305°
2026-05-01 09:53 47.98156 12.75382 18383 ft 373 kts 304°
2026-05-01 09:53 47.99478 12.72057 17840 ft 371 kts 304°
2026-05-01 09:53 48.00794 12.68757 17327 ft 369 kts 304°
2026-05-01 09:53 48.02103 12.65469 16811 ft 368 kts 304°
2026-05-01 09:54 48.03403 12.62193 16294 ft 366 kts 304°
2026-05-01 09:54 48.04696 12.58928 15800 ft 363 kts 304°
2026-05-01 09:54 48.05978 12.55689 15310 ft 361 kts 304°
2026-05-01 09:54 48.07259 12.52467 14828 ft 359 kts 304°
2026-05-01 09:55 48.08540 12.49270 14346 ft 357 kts 304°
2026-05-01 09:55 48.09814 12.46091 13831 ft 356 kts 304°
2026-05-01 09:55 48.11078 12.42925 13407 ft 351 kts 304°
2026-05-01 09:55 48.12314 12.39822 13099 ft 344 kts 304°
2026-05-01 09:56 48.13508 12.36763 12822 ft 337 kts 300°
2026-05-01 09:56 48.14354 12.33515 12558 ft 334 kts 287°
2026-05-01 09:56 48.14736 12.30111 12303 ft 329 kts 277°
2026-05-01 09:56 48.14964 12.26723 12049 ft 325 kts 277°
2026-05-01 09:57 48.15192 12.23385 11797 ft 320 kts 278°
2026-05-01 09:57 48.15419 12.20097 11545 ft 315 kts 278°
2026-05-01 09:57 48.15645 12.16856 11296 ft 311 kts 278°
2026-05-01 09:57 48.15868 12.13659 11044 ft 306 kts 278°
2026-05-01 09:58 48.16087 12.10507 10812 ft 303 kts 277°
2026-05-01 09:58 48.16303 12.07380 10570 ft 301 kts 277°
2026-05-01 09:58 48.16517 12.04277 10332 ft 298 kts 277°
2026-05-01 09:58 48.16728 12.01204 10054 ft 296 kts 277°
2026-05-01 09:59 48.16937 11.98156 9793 ft 292 kts 277°
2026-05-01 09:59 48.17141 11.95139 9529 ft 290 kts 276°
2026-05-01 09:59 48.17340 11.92140 9265 ft 289 kts 277°
2026-05-01 09:59 48.17541 11.89160 9009 ft 287 kts 277°
2026-05-01 10:00 48.17740 11.86199 8750 ft 285 kts 276°
2026-05-01 10:00 48.18033 11.83282 8490 ft 283 kts 287°
2026-05-01 10:00 48.18736 11.80561 8239 ft 278 kts 300°
2026-05-01 10:00 48.19804 11.78176 7988 ft 274 kts 310°
2026-05-01 10:01 48.20958 11.75919 7744 ft 273 kts 310°
2026-05-01 10:01 48.22105 11.73662 7495 ft 271 kts 310°
2026-05-01 10:01 48.23238 11.71412 7244 ft 269 kts 309°
2026-05-01 10:01 48.24360 11.69178 7003 ft 268 kts 309°
2026-05-01 10:02 48.25477 11.66952 6755 ft 266 kts 309°
2026-05-01 10:02 48.26586 11.64738 6502 ft 266 kts 309°
2026-05-01 10:02 48.27694 11.62530 6237 ft 263 kts 308°
2026-05-01 10:02 48.28792 11.60347 5991 ft 262 kts 309°
2026-05-01 10:03 48.29886 11.58170 5724 ft 260 kts 309°
2026-05-01 10:03 48.30968 11.56008 5469 ft 259 kts 308°
2026-05-01 10:03 48.32050 11.53841 5224 ft 258 kts 308°
2026-05-01 10:03 48.33124 11.51695 4958 ft 257 kts 309°
2026-05-01 10:04 48.34212 11.49623 4685 ft 246 kts 319°
2026-05-01 10:04 48.35623 11.48563 4412 ft 215 kts
2026-05-01 10:04 48.36923 11.49151 4165 ft 188 kts 47°
2026-05-01 10:04 48.37360 11.50175 3978 ft 170 kts 81°
2026-05-01 10:05 48.37276 11.51850 3771 ft 159 kts 109°
2026-05-01 10:05 48.36802 11.53317 3519 ft 152 kts 111°
2026-05-01 10:05 48.36405 11.54752 3258 ft 145 kts 108°
2026-05-01 10:05 48.36089 11.56174 3075 ft 140 kts 105°
2026-05-01 10:06 48.35845 11.57560 3011 ft 135 kts 102°
2026-05-01 10:06 48.35659 11.58913 3006 ft 129 kts 100°
2026-05-01 10:06 48.35523 11.60231 3026 ft 125 kts 96°
2026-05-01 10:06 48.35435 11.61511 3009 ft 123 kts 95°
2026-05-01 10:07 48.35390 11.62795 2942 ft 125 kts 91°
2026-05-01 10:07 48.35393 11.64074 2812 ft 123 kts 89°
2026-05-01 10:07 48.35445 11.65373 2698 ft 124 kts 87°
2026-05-01 10:07 48.35520 11.66671 2598 ft 123 kts 84°
2026-05-01 10:08 48.35700 11.69252 2536 ft 123 kts 84°
2026-05-01 10:08 48.35796 11.70531 2360 ft 121 kts 85°
2026-05-01 10:08 48.35892 11.71798 2169 ft 124 kts 85°
2026-05-01 10:09 48.35990 11.73064 1998 ft 122 kts 83°
2026-05-01 10:09 48.36091 11.74372 1841 ft 125 kts 83°
2026-05-01 10:09 48.36186 11.75516 1694 ft 123 kts 84°
2026-05-01 10:09 48.36293 11.76821 1502 ft 122 kts 86°
2026-05-01 10:10 48.36383 11.78024 1461 ft 108 kts 85°
2026-05-01 10:10 48.36435 11.78758 1469 ft 26 kts 83°
2026-05-01 10:10 48.36453 11.79009 1459 ft 14 kts 88°
2026-05-01 10:11 48.36453 11.79157 1464 ft 14 kts 94°
2026-05-01 10:11 48.36433 11.79291 1459 ft 13 kts 106°
2026-05-01 10:11 48.36401 11.79431 1466 ft 16 kts 111°
2026-05-01 10:11 48.36357 11.79596 1463 ft 18 kts 113°
2026-05-01 10:12 48.36302 11.79760 1459 ft 15 kts 117°
2026-05-01 10:12 48.36278 11.79809 1462 ft 0 kts 137°
2026-05-01 10:13 48.36277 11.79811 1462 ft 1 kts 137°
2026-05-01 10:13 48.36224 11.79792 1463 ft 7 kts 252°
2026-05-01 10:13 48.36231 11.79723 1466 ft 8 kts 271°
2026-05-01 10:14 48.36221 11.79549 1457 ft 6 kts 262°
2026-05-01 10:14 48.36199 11.79489 1463 ft 8 kts 214°
2026-05-01 10:14 48.36142 11.79477 1468 ft 9 kts 181°
2026-05-01 10:14 48.36067 11.79483 1467 ft 13 kts 175°
2026-05-01 10:15 48.35975 11.79498 1463 ft 7 kts 173°
2026-05-01 10:15 48.35974 11.79499 1467 ft 0 kts 173°
2026-05-01 10:16 48.35913 11.79510 1467 ft 12 kts 172°
2026-05-01 10:17 48.35821 11.79528 1465 ft 15 kts 173°
2026-05-01 10:17 48.35718 11.79597 1466 ft 7 kts 92°
2026-05-01 10:17 48.35727 11.79678 1465 ft 9 kts 78°
2026-05-01 10:18 48.35729 11.79699 1464 ft 0 kts 79°